SES-7 (PROTOSTAR 2)

Last updated on Wed Sep 17 2025 00:02:47 GMT+0000 (Coordinated Universal Time)

1 34941U 09027A 25259.46248481 -.00000364 00000+0 00000+0 0 9991 2 34941 0.0176 83.1392 0001933 128.1126 59.1535 1.00269809 59883
UTC large
Height (km)
Speed (km/s)
/
Latitude / Longitude
Inclination (degrees)
Orbital Period (minutes)
Azimuth
Elevation
Range (km)
Doppler Factor

Next 0 passes for location: London (51.5072 / 0.1276)

Sorry there are no passes over London.